カタログに戻る

FENGYUN 1C DEB

運用中PO
NORAD 32181·DEBRIS·🇨🇳 China

打ち上げ May 10, 1999 から Taiyuan Satellite Launch Center

Loading…

次のパス (今後24時間)

TLE

最新Source: Space-Track

元期: Sep 14, 2026, 08:46 UTC

1 32181U 99025CUB 26257.36573322  .00002329  00000-0  50119-3 0  9998
2 32181  99.4980  44.0613 0070282 342.8870  46.5930 14.58187388  7305

AllMySatでFENGYUN 1C DEBをリアルタイム追跡

Download on the App Store